TimeCST,TemperatureF,Dew PointF,Humidity,Sea Level PressureIn,VisibilityMPH,Wind Direction,Wind SpeedMPH,Gust SpeedMPH,PrecipitationIn,Events,Conditions,WindDirDegrees,DateUTC
12:15 AM,15.8,6.8,68,30.31,10.0,NW,8.1,-,N/A,,Clear,320,2013-02-20 06:15:00
12:35 AM,14.0,5.0,67,30.32,10.0,North,15.0,-,N/A,,Mostly Cloudy,350,2013-02-20 06:35:00
12:55 AM,12.2,3.2,67,30.34,10.0,NNW,12.7,-,N/A,,Overcast,340,2013-02-20 06:55:00
1:15 AM,12.2,3.2,67,30.35,10.0,NNW,15.0,-,N/A,,Scattered Clouds,330,2013-02-20 07:15:00
1:35 AM,10.4,1.4,67,30.35,10.0,NW,12.7,-,N/A,,Clear,320,2013-02-20 07:35:00
1:55 AM,10.4,1.4,67,30.34,10.0,NNW,12.7,-,N/A,,Clear,340,2013-02-20 07:55:00
2:15 AM,10.4,1.4,67,30.36,10.0,NNW,9.2,-,N/A,,Clear,340,2013-02-20 08:15:00
2:35 AM,8.6,-0.4,67,30.36,10.0,NNW,11.5,-,N/A,,Clear,340,2013-02-20 08:35:00
2:55 AM,8.6,-0.4,67,30.36,10.0,NNW,9.2,-,N/A,,Clear,340,2013-02-20 08:55:00
3:15 AM,8.6,-0.4,67,30.36,10.0,North,12.7,-,N/A,,Clear,350,2013-02-20 09:15:00
3:35 AM,8.6,-0.4,67,30.36,10.0,North,12.7,-,N/A,,Clear,350,2013-02-20 09:35:00
3:55 AM,6.8,-2.2,67,30.36,10.0,NNW,13.8,-,N/A,,Clear,340,2013-02-20 09:55:00
4:15 AM,6.8,-2.2,67,30.35,10.0,North,12.7,-,N/A,,Clear,360,2013-02-20 10:15:00
4:35 AM,6.8,-2.2,67,30.34,10.0,North,11.5,-,N/A,,Clear,360,2013-02-20 10:35:00
4:55 AM,6.8,-2.2,67,30.34,10.0,North,11.5,18.4,N/A,,Clear,360,2013-02-20 10:55:00
5:15 AM,6.8,-2.2,67,30.35,10.0,North,9.2,-,N/A,,Clear,350,2013-02-20 11:15:00
5:35 AM,6.8,-2.2,67,30.35,10.0,North,10.4,-,N/A,,Clear,350,2013-02-20 11:35:00
5:55 AM,6.8,-2.2,67,30.36,10.0,NNW,8.1,-,N/A,,Clear,340,2013-02-20 11:55:00
6:15 AM,6.8,-2.2,67,30.37,10.0,NNW,6.9,-,N/A,,Clear,340,2013-02-20 12:15:00
6:35 AM,6.8,-2.2,67,30.38,10.0,NNW,4.6,-,N/A,,Clear,330,2013-02-20 12:35:00
6:55 AM,6.8,-2.2,67,30.38,10.0,NNW,6.9,-,N/A,,Clear,330,2013-02-20 12:55:00
7:15 AM,6.8,-2.2,67,30.39,10.0,NNW,5.8,-,N/A,,Clear,340,2013-02-20 13:15:00
7:35 AM,6.8,-2.2,67,30.39,10.0,NNW,5.8,-,N/A,,Clear,340,2013-02-20 13:35:00
7:55 AM,6.8,-2.2,67,30.40,10.0,North,5.8,-,N/A,,Clear,350,2013-02-20 13:55:00
8:15 AM,6.8,-0.4,72,30.40,10.0,North,6.9,-,N/A,,Clear,350,2013-02-20 14:15:00
8:35 AM,8.6,-0.4,67,30.41,10.0,North,5.8,-,N/A,,Clear,350,2013-02-20 14:35:00
8:55 AM,8.6,-0.4,67,30.41,10.0,North,4.6,-,N/A,,Clear,350,2013-02-20 14:55:00
9:15 AM,8.6,-0.4,67,30.42,10.0,WNW,5.8,-,N/A,,Clear,300,2013-02-20 15:15:00
9:35 AM,10.4,-0.4,62,30.44,10.0,NW,4.6,-,N/A,,Clear,310,2013-02-20 15:35:00
9:55 AM,12.2,1.4,62,30.43,10.0,NNW,6.9,-,N/A,,Clear,340,2013-02-20 15:55:00
10:15 AM,12.2,1.4,62,30.42,10.0,NNW,3.5,-,N/A,,Clear,330,2013-02-20 16:15:00
10:35 AM,12.2,3.2,67,30.42,10.0,WNW,4.6,-,N/A,,Clear,300,2013-02-20 16:35:00
10:55 AM,14.0,3.2,62,30.44,10.0,NW,4.6,-,N/A,,Clear,310,2013-02-20 16:55:00
11:15 AM,15.8,3.2,58,30.44,10.0,NNW,3.5,-,N/A,,Clear,330,2013-02-20 17:15:00
11:35 AM,15.8,3.2,58,30.44,10.0,Calm,Calm,-,N/A,,Clear,0,2013-02-20 17:35:00
11:55 AM,17.6,5.0,58,30.44,10.0,NW,3.5,-,N/A,,Clear,310,2013-02-20 17:55:00
12:15 PM,17.6,5.0,58,30.42,10.0,NNW,3.5,-,N/A,,Clear,330,2013-02-20 18:15:00
12:35 PM,17.6,6.8,63,30.41,10.0,NNW,4.6,-,N/A,,Clear,330,2013-02-20 18:35:00
12:55 PM,19.4,6.8,58,30.40,10.0,NW,6.9,-,N/A,,Clear,310,2013-02-20 18:55:00
1:15 PM,19.4,8.6,63,30.38,10.0,NNW,3.5,-,N/A,,Clear,330,2013-02-20 19:15:00
1:35 PM,21.2,8.6,58,30.37,10.0,NNW,3.5,-,N/A,,Clear,330,2013-02-20 19:35:00
1:55 PM,21.2,8.6,58,30.35,10.0,NE,3.5,-,N/A,,Clear,40,2013-02-20 19:55:00
2:55 PM,21.2,8.6,58,30.36,10.0,Calm,Calm,-,N/A,,Clear,0,2013-02-20 20:55:00
3:15 PM,21.2,8.6,58,30.36,10.0,Calm,Calm,-,N/A,,Clear,0,2013-02-20 21:15:00
3:35 PM,21.2,8.6,58,30.36,10.0,Calm,Calm,-,N/A,,Clear,0,2013-02-20 21:35:00
3:55 PM,21.2,8.6,58,30.36,10.0,Calm,Calm,-,N/A,,Clear,0,2013-02-20 21:55:00
4:15 PM,21.2,8.6,58,30.35,10.0,Calm,Calm,-,N/A,,Clear,0,2013-02-20 22:15:00
4:35 PM,21.2,10.4,63,30.35,10.0,Calm,Calm,-,N/A,,Clear,0,2013-02-20 22:35:00
4:55 PM,23.0,10.4,59,30.34,10.0,Calm,Calm,-,N/A,,Clear,0,2013-02-20 22:55:00
5:15 PM,21.2,10.4,63,30.33,10.0,Calm,Calm,-,N/A,,Clear,0,2013-02-20 23:15:00
5:35 PM,21.2,10.4,63,30.32,10.0,ENE,4.6,-,N/A,,Clear,70,2013-02-20 23:35:00
5:55 PM,21.2,10.4,63,30.32,10.0,NE,5.8,-,N/A,,Clear,50,2013-02-20 23:55:00
6:15 PM,21.2,10.4,63,30.32,10.0,ENE,3.5,-,N/A,,Clear,60,2013-02-21 00:15:00
6:35 PM,21.2,10.4,63,30.32,10.0,NE,3.5,-,N/A,,Clear,50,2013-02-21 00:35:00
6:55 PM,21.2,10.4,63,30.33,10.0,Calm,Calm,-,N/A,,Clear,0,2013-02-21 00:55:00
7:15 PM,21.2,12.2,68,30.32,10.0,ENE,3.5,-,N/A,,Clear,60,2013-02-21 01:15:00
7:35 PM,21.2,12.2,68,30.31,10.0,ENE,4.6,-,N/A,,Clear,60,2013-02-21 01:35:00
7:55 PM,21.2,12.2,68,30.32,10.0,ENE,5.8,-,N/A,,Clear,70,2013-02-21 01:55:00
8:15 PM,21.2,12.2,68,30.31,10.0,ENE,5.8,-,N/A,,Clear,70,2013-02-21 02:15:00
8:35 PM,21.2,12.2,68,30.31,10.0,ENE,6.9,-,N/A,,Clear,70,2013-02-21 02:35:00
8:55 PM,21.2,12.2,68,30.33,10.0,ENE,5.8,-,N/A,,Clear,70,2013-02-21 02:55:00
9:15 PM,21.2,12.2,68,30.34,10.0,Calm,Calm,-,N/A,,Clear,0,2013-02-21 03:15:00
9:35 PM,21.2,12.2,68,30.35,10.0,East,3.5,-,N/A,,Clear,100,2013-02-21 03:35:00
9:55 PM,21.2,12.2,68,30.35,10.0,East,3.5,-,N/A,,Clear,100,2013-02-21 03:55:00
10:15 PM,21.2,12.2,68,30.36,10.0,East,3.5,-,N/A,,Mostly Cloudy,100,2013-02-21 04:15:00
10:35 PM,21.2,12.2,68,30.35,10.0,ENE,3.5,-,N/A,,Overcast,70,2013-02-21 04:35:00
10:55 PM,21.2,12.2,68,30.35,10.0,Calm,Calm,-,N/A,,Overcast,0,2013-02-21 04:55:00
11:15 PM,19.4,12.2,74,30.34,10.0,ENE,5.8,-,N/A,,Overcast,70,2013-02-21 05:15:00
11:35 PM,19.4,12.2,74,30.33,10.0,East,5.8,-,N/A,,Mostly Cloudy,80,2013-02-21 05:35:00
11:55 PM,21.2,12.2,68,30.33,10.0,East,8.1,-,N/A,,Mostly Cloudy,80,2013-02-21 05:55:00